Regional Weather Roundup
Issued by NWS

Home | Current Version | Previous Version | Text Only | Print | Product List | Glossary Off
Versions: 1 2 3 4 5 6 7 8 9 10 11 12 13 14 15 16 17 18 19 20 21 22 23 24 25 26 27 28 29 30 31 32 33 34 35 36 37 38 39 40 41 42 43 44 45 46 47 48 49 50

000
ASUS45 KPSR 221900
RWRAZ

PRELIMINARY ARIZONA REGIONAL HOURLY WEATHER ROUNDUP
NATIONAL WEATHER SERVICE PHOENIX AZ
1200 PM MST MON DEC 22 2014

NOTE: FAIR INDICATES FEW OR NO CLOUDS BELOW 12,000 FEET WITH NO
SIGNIFICANT WEATHER AND/OR OBSTRUCTIONS TO VISIBILITY.

AZZ001>003-036-222000-
NORTHWEST ARIZONA

CITY           SKY/WX    TMP DP  RH WIND       PRES   REMARKS
KINGMAN        SUNNY     63  36  36 N9        30.07F
$$

AZZ004>008-015-016-018-222000-
NORTH CENTRAL ARIZONA

CITY           SKY/WX    TMP DP  RH WIND       PRES   REMARKS
GRAND CANYON   SUNNY     49  34  56 NW9G20    30.06F
PRESCOTT       SUNNY     58  33  39 N12       30.06F
FLAGSTAFF      NOT AVBL
PAYSON         SUNNY     54  37  54 W9        30.03F
PAGE           SUNNY     57  36  45 NE5       29.90F
$$

AZZ009>014-017-222000-
NORTHEAST ARIZONA

CITY           SKY/WX    TMP DP  RH WIND       PRES   REMARKS
WINSLOW        NOT AVBL
SAINT JOHNS    SUNNY     55  35  47 NW14G22   29.98F
WINDOW ROCK    SUNNY     52  33  48 W17G24    29.92F
$$

AZZ023-222000-
GREATER PHOENIX AREA

CITY           SKY/WX    TMP DP  RH WIND       PRES   REMARKS
PHOENIX        SUNNY     61  42  49 SE3       30.00F
GLENDALE       SUNNY     57  45  62 CALM      30.03F
DEER VALLEY    SUNNY     57  41  55 S3        30.00F
SCOTTSDALE     SUNNY     57  41  55 S3        30.02F
MESA-GATEWAY   MOSUNNY   57  43  58 CALM      30.04F
CHANDLER       SUNNY     57  43  58 CALM      30.03F
$$

AZZ027-028-222000-
SOUTHWEST MARICOPA COUNTY AND PINAL COUNTY

CITY           SKY/WX    TMP DP  RH WIND       PRES   REMARKS
CASA GRANDE    SUNNY     57  43  58 MISG      30.03F
$$

AZZ503-504-507>509-222000-
SOUTHEAST ARIZONA

CITY           SKY/WX    TMP DP  RH WIND       PRES   REMARKS
TUCSON         SUNNY     59  39  47 CALM      30.03F
NOGALES        SUNNY     61  35  37 CALM      30.03F
SAFFORD        SUNNY     55  38  52 W9        29.95F
$$

AZZ020-021-025-026-031-222000-
SOUTHWEST ARIZONA

CITY           SKY/WX    TMP DP  RH WIND       PRES   REMARKS
YUMA           SUNNY    N/A N/A N/A W5        30.03F
$$

CAZ031-033-041-043-047-048-061-222000-
SOUTHERN CALIFORNIA

CITY           SKY/WX    TMP DP  RH WIND       PRES   REMARKS
DOWNTOWN L.A.  SUNNY     70  48  45 CALM      30.03F
L.A. AIRPORT   MOSUNNY   67  51  56 CALM      30.04F
SAN DIEGO      SUNNY     68  55  63 NW7       30.05F
BURBANK        SUNNY     70  48  45 CALM      30.04F
ONTARIO        SUNNY     66  46  48 CALM      30.04F
RIVERSIDE      SUNNY     67  47  48 E3        30.04F
PALM SPRINGS   SUNNY     70  44  39 E7        30.04F
EL CENTRO NAS  SUNNY     66  47  50 CALM      30.02F
IMPERIAL       SUNNY     66  48  52 CALM      30.02F
BLYTHE         SUNNY     61  44  53 CALM      30.03F
$$

NVZ020-UTZ003-222000-
SOUTHERN NEVADA-UTAH

CITY           SKY/WX    TMP DP  RH WIND       PRES   REMARKS
LAS VEGAS      NOT AVBL
SALT LAKE CITY CLOUDY    42  36  79 N5        30.00R
$$

NMZ009-TXZ055-222000-
NEW MEXICO-WEST TEXAS

CITY           SKY/WX    TMP DP  RH WIND       PRES   REMARKS
ALBUQUERQUE    MOSUNNY   55  33  43 SW6       29.82F
EL PASO        MOSUNNY   62  33  33 SW12      29.85F
$$


........................KEY........................
SKY/WX - SKY CONDITION/WEATHER
TMP    - TEMPERATURE IN FAHRENHEIT
DP     - DEW POINT IN FAHRENHEIT
RH     - RELATIVE HUMIDITY IN PERCENT
WIND   - DIRECTION AND SPEED IN MILES PER HOUR (MPH)
VRB    - VARIABLE WIND DIRECTION
PRES   - MEAN SEA LEVEL PRESSURE IN INCHES OF MERCURY
         F - FALLING PRESSURE   R - RISING PRESSURE
         S - STEADY PRESSURE
VSB    - VISIBILITY IN MILES
HX     - HEAT INDEX IN FAHRENHEIT
WCI    - WIND CHILL INDEX IN FAHRENHEIT
TC     - TEMPERATURE IN CELSIUS WHICH IS ALSO KNOWN AS
         TEMPERATURE IN CENTIGRADE
AFB    - AIR FORCE BASE
         LUKE AFB IS LUKE AIR FORCE BASE
         DAVIS-MONTHAN IS DAVIS-MONTHAN AIR FORCE BASE
NAS    - NAVAL AIR STATION
         EL CENTRO NAS IS EL CENTRO NAVAL AIR STATION
N/A    - NOT AVAILABLE



USA.gov is the U.S. government's official web portal to all federal, state and local government web resources and services.